Regional Weather Roundup
Issued by NWS

Home | Current Version | Previous Version | Text Only | Print | Product List | Glossary On
Versions: 1 2 3 4 5 6 7 8 9 10 11 12 13 14 15 16 17 18 19 20 21 22 23 24 25 26 27 28 29 30 31 32 33 34 35 36 37 38 39 40 41 42 43 44 45 46 47 48 49
000
ASUS46 KPQR 192310
RWROR

OREGON REGIONAL WEATHER ROUNDUP
NATIONAL WEATHER SERVICE PORTLAND OR
300 PM PST FRI DEC 19 2014

NOTE: "FAIR" INDICATES FEW OR NO CLOUDS BELOW 12,000 FEET WITH
NO SIGNIFICANT WEATHER AND/OR OBSTRUCTIONS TO VISIBILITY.

ORZ001>013-200000-
NORTHWEST OREGON


CITY           SKY/WX    TMP DP  RH WIND       PRES   REMARKS
ASTORIA        PTSUNNY   50  44  80 SE7       29.93S
NEWPORT        MOSUNNY   52  46  82 SE6       30.00R
PORTLAND       PTSUNNY   53  44  71 S7        30.00F
VANCOUVER WA   CLOUDY    52  42  69 S5        30.00S
SCAPPOOSE      CLOUDY    51  44  77 VRB5      29.99S
HILLSBORO      PTSUNNY   50  44  80 S9        29.99S
AURORA         PTSUNNY   50  44  80 S8        30.01S
MCMINNVILLE    PTSUNNY   51  43  74 S8        30.00F
SALEM          LGT RAIN  51  44  77 S10       29.99F
CORVALLIS      CLOUDY    50  46  87 NW5       30.00F
EUGENE         PTSUNNY   52  43  71 S12       30.00F
$$

ORZ021-028-200000-
SOUTHWEST OREGON


CITY           SKY/WX    TMP DP  RH WIND       PRES   REMARKS
NORTH BEND     CLOUDY    52  50  93 S7        30.01S
BROOKINGS      PTSUNNY   55  52  90 VRB7      30.05F FOG
ROSEBURG       PTSUNNY   55  45  68 S6        30.01F
SEXTON SUMMIT  FOG       37  37 100 S13G20    29.98F VSB<1/4 WCI  29
MEDFORD        LGT RAIN  49  43  80 CALM      30.05F
$$

ORZ014>016-041-200000-
COLUMBIA GORGE


CITY           SKY/WX    TMP DP  RH WIND       PRES   REMARKS
TROUTDALE      PTSUNNY   54  41  61 SW8       29.99F
THE DALLES     CLEAR     50  41  71 NW5       30.01R
$$

ORZ029>031-041-044-049-050-061>064-502-503-505>511-200000-
EASTERN OREGON


CITY           SKY/WX    TMP DP  RH WIND       PRES   REMARKS
REDMOND        PTSUNNY   45  31  58 N7        29.98R
BEND           PTSUNNY   43  28  56 SW15      29.98R
PRINEVILLE     PTSUNNY   45  32  61 CALM      29.99R
KLAMATH FALLS  CLOUDY    44  35  70 W13       30.02S
LAKEVIEW       CLOUDY    39  36  87 S9        30.04S WCI  33
HERMISTON      CLEAR     51  38  60 W10       29.99S
PENDLETON      MOCLDY    46  40  79 SW5       29.99R
JOHN DAY       PTCLDY    42  36  79 S12       30.00R
MEACHAM        MOCLDY    38  36  92 CALM      29.97R
LA GRANDE      MOCLDY    43  34  70 W5        30.00R
BAKER CITY     LGT RAIN  39  36  89 SW3       30.00R FOG
BURNS          PTSUNNY   40  36  86 SW7       30.01R
ROME             N/A     45  34  65 SW15      30.01R
ONTARIO        CLOUDY    46  41  82 CALM      30.06S
$$



USA.gov is the U.S. government's official web portal to all federal, state and local government web resources and services.